DW7418 Weather Reports


time (UTC)temp
C
wind
direction
speed
KPH
gust
KPH
rain 1hr
cm
rain 24hr
cm
rain mn
cm
humidity
%
barometer
mb
20260506123603 15 13 6.4 24.1 0.00 0.00 0.00 48 1009.8
20260506122703 15 345 4.8 14.5 0.00 0.00 0.00 48 1009.8
20260506121803 15 5 6.4 22.5 0.00 0.00 0.00 45 1009.8
20260506121116 16 4 6.4 22.5 0.00 0.00 0.00 45 1009.8
20260506120003 15 348 6.4 20.9 0.00 0.00 0.00 44 1009.7
20260506115403 16 4 8.0 22.5 0.00 0.00 0.00 44 1009.7
20260506114503 16 5 8.0 20.9 0.00 0.00 0.00 45 1009.7
20260506113603 15 358 9.7 24.1 0.00 0.00 0.00 49 1009.7
20260506112703 15 14 11.3 30.6 0.00 0.00 0.00 50 1009.7
20260506111803 15 1 8.0 27.4 0.00 0.00 0.00 49 1009.8
20260506110903 15 358 6.4 20.9 0.00 0.00 0.00 47 1009.7
20260506110004 14 12 9.7 22.5 0.00 0.00 0.00 49 1009.7
20260506105403 14 17 11.3 30.6 0.00 0.00 0.00 47 1009.8
20260506104503 15 5 8.0 25.7 0.00 0.00 0.00 49 1009.8
20260506103603 15 1 8.0 25.7 0.00 0.00 0.00 49 1009.8
20260506102703 14 4 8.0 27.4 0.00 0.00 0.00 51 1009.7
20260506101803 14 1 8.0 22.5 0.00 0.00 0.00 52 1009.8
20260506100903 14 13 9.7 25.7 0.00 0.00 0.00 51 1009.7
20260506100004 14 3 8.0 24.1 0.00 0.00 0.00 51 1009.6
20260506095617 14 7 9.7 24.1 0.00 0.00 0.00 53 1009.6
20260506094503 13 9 6.4 20.9 0.00 0.00 0.00 52 1009.6
20260506093603 13 1 8.0 27.4 0.00 0.00 0.00 53 1009.6
20260506092703 13 11 9.7 27.4 0.00 0.00 0.00 55 1009.6
20260506091803 13 11 8.0 27.4 0.00 0.00 0.00 57 1009.5
20260506090903 13 12 8.0 25.7 0.00 0.00 0.00 59 1009.6
20260506090004 13 4 8.0 27.4 0.00 0.00 0.00 60 1009.5
20260506085618 13 1 6.4 20.9 0.00 0.00 0.00 62 1009.5
20260506084503 12 12 11.3 25.7 0.00 0.00 0.00 63 1009.5
20260506083603 12 8 9.7 24.1 0.00 0.00 0.00 64 1009.5
20260506082703 12 13 9.7 25.7 0.00 0.00 0.00 65 1009.5
20260506081803 12 13 9.7 22.5 0.00 0.00 0.00 66 1009.4
20260506080903 12 11 8.0 25.7 0.00 0.00 0.00 64 1009.4
20260506080218 12 7 8.0 20.9 0.00 0.00 0.00 61 1009.4
20260506072703 12 12 8.0 24.1 0.00 0.00 0.00 53 1009.3
20260506071803 12 10 8.0 24.1 0.00 0.00 0.00 48 1009.3
20260506070903 12 13 8.0 22.5 0.00 0.00 0.00 40 1009.3
20260506061803 11 17 9.7 22.5 0.00 0.00 0.00 1 1009.1
20260506060903 11 2 6.4 22.5 0.00 0.00 0.00 1 1009.0
20260506050903 10 16 9.7 22.5 0.00 0.00 0.00 1 1009.0
20260506044503 10 18 9.7 27.4 0.00 0.00 0.00 1 1008.9
20260506043603 10 11 8.0 19.3 0.00 0.00 0.00 1 1008.9
20260506042703 10 1 8.0 22.5 0.00 0.00 0.00 1 1008.9
20260506041803 10 355 6.4 20.9 0.00 0.00 0.00 1 1008.8
20260506041118 10 356 6.4 19.3 0.00 0.00 0.00 4 1008.9
20260506040003 10 1 6.4 17.7 0.00 0.00 0.00 8 1009.0
20260506035619 10 5 4.8 17.7 0.00 0.00 0.00 9 1008.9
20260506034503 10 360 6.4 25.7 0.00 0.00 0.00 11 1009.0
20260506033603 10 4 6.4 16.1 0.00 0.00 0.00 13 1009.0
20260506032703 10 354 6.4 17.7 0.00 0.00 0.00 14 1009.0
20260506031803 10 357 6.4 17.7 0.00 0.00 0.00 15 1009.2
20260506030903 10 354 4.8 17.7 0.00 0.00 0.00 16 1009.2
20260506030003 10 358 4.8 17.7 0.00 0.00 0.00 16 1009.3
20260506025403 10 2 4.8 17.7 0.00 0.00 0.00 16 1009.4
20260506024503 10 7 6.4 19.3 0.00 0.00 0.00 15 1009.4
20260506023603 10 360 6.4 24.1 0.00 0.00 0.00 14 1009.5
20260506022703 10 2 6.4 24.1 0.00 0.00 0.00 11 1009.6
20260506021803 10 2 6.4 22.5 0.00 0.00 0.00 9 1009.6
20260506020903 10 359 6.4 16.1 0.00 0.00 0.00 9 1009.5
20260506020218 10 356 4.8 17.7 0.00 0.00 0.00 8 1009.5
20260506015403 10 354 6.4 17.7 0.00 0.00 0.00 8 1009.6
20260506014717 10 354 4.8 16.1 0.00 0.00 0.00 8 1009.6
20260506013603 10 347 6.4 16.1 0.00 0.00 0.00 8 1009.7
20260506012703 10 360 6.4 24.1 0.00 0.00 0.00 9 1009.7
20260506011803 10 355 4.8 14.5 0.00 0.00 0.00 11 1009.7
20260506010903 10 357 6.4 16.1 0.00 0.00 0.00 14 1009.8
20260506010003 10 360 4.8 14.5 0.00 0.00 0.00 17 1009.9
20260506005403 10 357 4.8 14.5 0.00 0.00 0.00 19 1010.0
20260506004717 10 355 4.8 12.9 0.00 0.00 0.00 21 1010.0
20260506003603 10 355 4.8 14.5 0.00 0.00 0.00 25 1010.1
20260506002703 10 349 4.8 17.7 0.00 0.00 0.00 28 1010.1
20260506001803 10 352 4.8 14.5 0.00 0.00 0.00 30 1010.1
20260506000903 10 356 6.4 12.9 0.00 0.00 0.00 31 1010.2
20260506000003 10 354 6.4 19.3 0.00 0.00 0.00 32 1010.3
20260505235403 10 360 6.4 16.1 0.00 0.00 0.00 33 1010.4
20260505234503 10 352 4.8 12.9 0.00 0.00 0.00 34 1010.5
20260505233603 10 357 4.8 17.7 0.00 0.00 0.00 34 1010.5
20260505232703 10 351 4.8 17.7 0.00 0.00 0.00 33 1010.5
20260505231803 10 351 6.4 16.1 0.00 0.00 0.00 33 1010.5
20260505231118 10 352 6.4 16.1 0.00 0.00 0.00 33 1010.5
20260505230003 10 356 4.8 16.1 0.00 0.00 0.00 31 1010.6
20260505225403 10 6 4.8 16.1 0.00 0.00 0.00 31 1010.7
20260505224718 10 11 6.4 16.1 0.00 0.00 0.00 29 1010.7
20260505223817 10 353 6.4 19.3 0.00 0.00 0.00 28 1010.8
20260505222703 10 6 6.4 17.7 0.00 0.00 0.00 26 1010.8
20260505221803 10 355 4.8 14.5 0.00 0.00 0.00 25 1010.8
20260505220903 10 2 6.4 19.3 0.00 0.00 0.00 25 1010.9
20260505220006 10 4 6.4 17.7 0.00 0.00 0.00 26 1010.9
20260505215403 10 7 6.4 16.1 0.00 0.00 0.00 27 1011.0
20260505214503 10 360 8.0 22.5 0.00 0.00 0.00 28 1011.1
20260505213603 10 9 6.4 22.5 0.00 0.00 0.00 30 1011.1
20260505212918 10 3 6.4 19.3 0.00 0.00 0.00 32 1011.1
20260505211803 10 15 6.4 19.3 0.00 0.00 0.00 36 1011.2
20260505210903 10 8 8.0 24.1 0.00 0.00 0.00 38 1011.2
20260505210222 10 359 8.0 24.1 0.00 0.00 0.00 39 1011.2
20260505205618 10 359 6.4 16.1 0.00 0.00 0.00 40 1011.3
20260505204717 10 7 8.0 19.3 0.00 0.00 0.00 41 1011.4
20260505203817 10 355 6.4 17.7 0.00 0.00 0.00 42 1011.3
20260505202703 10 357 4.8 14.5 0.00 0.00 0.00 46 1011.3
20260505201803 10 350 6.4 19.3 0.00 0.00 0.00 50 1011.3
20260505200903 10 357 6.4 16.1 0.00 0.00 0.00 52 1011.2
20260505200004 10 2 8.0 19.3 0.00 0.00 0.00 54 1011.2
20260505195403 10 357 8.0 19.3 0.00 0.00 0.00 56 1011.2
20260505194717 10 3 6.4 19.3 0.00 0.00 0.00 57 1011.1
20260505193818 10 9 8.0 24.1 0.00 0.00 0.00 60 1011.1
20260505192703 10 360 6.4 20.9 0.00 0.00 0.00 63 1010.9
20260505192017 10 7 6.4 19.3 0.00 0.00 0.00 65 1011.0
20260505191118 10 5 8.0 19.3 0.00 0.00 0.00 67 1011.0
20260505190004 10 6 6.4 20.9 0.00 0.00 0.00 68 1010.9
20260505185408 10 10 6.4 22.5 0.00 0.00 0.00 68 1010.9
20260505184503 10 12 8.0 24.1 0.00 0.00 0.00 69 1010.7
20260505183603 10 4 4.8 19.3 0.00 0.00 0.00 68 1010.9
20260505182703 10 358 6.4 22.5 0.00 0.00 0.00 68 1010.9
20260505181803 10 7 6.4 22.5 0.00 0.00 0.00 68 1010.9
20260505180903 11 4 8.0 22.5 0.00 0.00 0.00 68 1011.1
20260505180003 11 14 8.0 20.9 0.00 0.00 0.00 69 1011.0
20260505175403 11 13 8.0 19.3 0.00 0.00 0.00 69 1010.9
20260505174503 11 10 8.0 17.7 0.00 0.00 0.00 68 1010.9
20260505173603 11 10 6.4 22.5 0.00 0.00 0.00 69 1010.9
20260505172703 11 7 6.4 22.5 0.00 0.00 0.00 69 1010.9
20260505172018 11 360 6.4 19.3 0.00 0.00 0.00 68 1010.9
20260505170903 12 10 8.0 20.9 0.00 0.00 0.00 68 1010.9
20260505170004 12 6 6.4 20.9 0.00 0.00 0.00 68 1010.9
20260505165618 12 358 6.4 19.3 0.00 0.00 0.00 68 1010.8
20260505164503 12 357 8.0 24.1 0.00 0.00 0.00 68 1011.0
20260505163603 12 11 9.7 20.9 0.00 0.00 0.00 67 1010.9
20260505162703 12 12 6.4 20.9 0.00 0.00 0.00 67 1010.9
20260505161803 13 6 8.0 25.7 0.00 0.00 0.00 65 1011.0
20260505160903 13 12 8.0 19.3 0.00 0.00 0.00 66 1011.0
20260505152703 13 14 8.0 17.7 0.00 0.00 0.00 64 1011.0
20260505151803 13 13 9.7 22.5 0.00 0.00 0.00 64 1011.0
20260505150903 13 17 8.0 22.5 0.00 0.00 0.00 64 1011.0